Wind_Speed
21 21 22 22 23 23 23 24 25 24 25 25 27 27 27 27 27 27 28 28 28 29 30 31 31 32 32 32 33 34 35 36 38 39 40 41 42 42 43 43 43 43 45 46
21 21 22 23 22 22 22 23 24 25 25 26 27 27 27 26 26 26 26 27 28 28 29 29 30 31 31 32 33 33 34 35 36 37 38 40 41 41 42 42 42 42 43 44
22 22 23 22 21 21 22 22 24 25 25 25 26 27 26 25 25 25 25 26 27 28 28 29 30 30 31 31 31 32 33 34 34 36 37 38 38 38 40 39 39 39 39 40
22 22 22 20 20 21 21 22 24 24 25 26 27 27 26 26 26 26 26 27 27 27 28 28 29 29 29 29 30 31 32 32 32 33 34 35 36 37 37 36 37 36 36 36
23 23 22 20 20 20 21 22 23 23 24 26 26 27 26 27 27 27 27 27 27 28 28 28 28 28 29 29 29 30 30 31 31 32 32 33 34 34 34 34 34 34 33 33
22 23 23 20 21 21 22 22 22 23 24 24 25 26 26 27 27 27 27 27 28 28 28 28 28 28 28 28 28 28 28 28 30 31 31 31 31 31 30 30 29 29 29 29
22 23 22 21 21 21 23 23 23 23 23 24 25 25 26 26 27 27 27 28 28 29 29 29 29 28 28 28 28 27 27 27 28 28 29 29 28 27 27 27 27 27 27 28
21 22 21 21 21 22 23 23 23 23 23 24 24 25 26 27 27 27 28 28 28 28 28 28 28 28 27 27 27 26 26 26 26 25 25 25 25 25 25 26 26 26 26 27
22 22 21 21 22 22 23 23 23 23 24 25 25 25 26 27 27 28 28 29 28 27 27 27 27 27 26 26 25 25 25 24 23 23 23 23 23 23 24 25 25 25 25 25
22 21 22 22 22 23 23 23 24 24 24 25 25 25 26 26 27 28 28 28 28 27 26 26 26 25 25 24 24 24 23 22 22 22 21 21 22 22 23 23 24 24 24 23
22 22 22 22 22 23 22 23 24 24 24 24 25 25 26 27 27 28 27 27 27 26 26 25 25 25 24 23 23 23 22 21 21 21 21 21 22 23 23 23 22 21 20 20
22 22 23 23 23 23 23 24 24 24 24 24 25 25 26 26 27 27 27 26 25 26 26 25 25 24 23 22 22 22 22 21 21 20 20 20 21 21 20 19 19 18 17 17
21 22 22 22 23 24 24 24 24 25 25 25 25 25 25 26 26 26 26 25 25 25 25 25 24 23 22 21 21 21 21 20 21 20 21 21 20 20 19 18 18 17 17 16
21 22 23 23 23 24 24 24 25 25 25 26 26 26 26 26 26 25 25 25 25 25 24 23 22 22 21 21 21 21 20 20 20 20 20 20 19 18 18 17 16 15 15 15
22 23 23 24 24 24 25 24 25 25 26 26 26 26 26 26 25 25 24 24 23 23 22 22 21 21 21 21 20 20 19 19 19 18 18 17 16 15 15 14 13 13 13 13
23 23 24 24 24 24 24 24 24 25 25 25 25 25 25 25 24 24 23 23 22 21 21 21 21 20 20 19 19 18 18 17 17 16 16 15 14 13 13 12 12 12 12 12
24 24 24 24 24 24 24 24 24 23 24 24 23 24 24 24 23 22 22 21 21 20 20 20 19 19 19 18 18 17 16 16 15 14 13 12 12 12 11 11 11 11 11 11
24 23 23 22 22 22 23 23 22 22 22 22 22 23 23 22 21 20 20 19 19 19 18 18 18 18 18 18 17 16 16 15 14 13 12 12 11 11 10 10 11 11 11 11
23 22 22 22 22 22 21 21 21 21 22 22 22 21 21 20 19 19 18 18 18 18 18 18 18 17 16 15 15 15 14 14 13 12 12 12 11 11 11 11 11 11 11 12
21 21 21 21 21 20 20 20 20 21 21 21 20 20 19 19 18 18 17 17 16 16 16 16 16 15 15 14 14 13 13 13 12 12 12 12 11 11 11 11 12 12 12 13
19 19 19 19 19 19 19 19 20 20 20 19 19 18 18 18 18 18 17 16 15 15 15 15 14 13 13 13 13 12 12 12 12 11 12 12 11 11 11 12 13 13 13 14
19 19 19 19 19 19 19 19 19 19 19 19 18 17 16 16 16 16 15 14 14 14 14 13 13 13 13 13 12 12 12 11 11 11 11 11 11 12 12 13 13 13 13 14
19 19 19 19 19 18 18 19 19 19 19 18 17 16 16 15 15 14 13 13 12 12 12 12 12 12 12 12 12 11 11 11 10 10 10 10 11 11 12 12 13 13 13 13
18 18 18 18 18 18 18 19 18 18 17 17 16 16 15 15 14 13 13 13 12 12 12 12 12 12 12 12 11 11 10 10 10 10 10 10 11 12 12 13 13 13 13 13
17 17 17 18 18 18 18 18 17 16 16 16 15 15 14 14 14 14 14 14 13 13 12 12 12 12 12 11 11 10 10 9 9 9 9 10 10 11 12 12 12 12 12 13
17 17 17 17 17 18 17 17 17 16 16 15 15 15 14 14 14 14 14 14 14 14 13 13 13 12 12 11 11 10 10 10 10 10 10 10 11 11 11 11 11 11 12 13
17 17 17 17 17 17 17 17 16 16 15 15 14 14 14 14 14 14 14 14 14 13 13 13 13 13 12 12 11 11 11 11 10 10 10 11 11 10 10 10 11 11 11 11
Wind_Direction
270 272 275 275 274 276 278 280 281 283 284 289 289 288 288 288 288 286 285 284 284 283 282 283 283 281 277 276 274 274 273 272 271 270 270 270 270 269 269 269 271 271 269 268
270 271 274 274 274 276 279 281 281 283 286 288 290 290 289 288 288 289 289 288 287 287 286 285 284 282 282 280 279 276 275 274 273 272 272 273 271 271 270 270 271 272 271 269
271 271 272 272 275 276 278 282 284 284 287 287 289 290 290 289 288 289 290 290 290 289 289 288 286 285 284 283 282 280 278 277 275 274 274 275 274 274 272 270 271 271 271 270
274 272 271 274 274 275 278 281 284 287 288 288 288 289 289 289 289 290 290 291 291 291 291 291 290 288 287 286 284 282 280 278 276 275 275 275 274 273 271 270 270 271 271 272
274 274 275 275 277 277 280 282 284 288 290 291 290 290 288 288 290 291 290 290 291 291 292 291 290 289 288 287 287 285 283 280 278 276 277 276 275 273 272 271 271 271 272 273
276 274 274 278 278 278 281 284 286 289 289 291 291 291 291 290 291 291 290 290 291 291 291 291 290 290 289 290 289 287 285 284 282 279 279 278 276 275 274 273 272 271 271 272
277 275 275 278 280 281 282 286 288 289 290 291 290 291 292 291 290 291 291 292 292 292 292 291 290 291 291 291 290 289 287 286 285 284 281 278 275 274 273 273 272 271 272 273
278 275 278 278 279 282 285 287 288 289 291 293 293 292 292 292 291 291 291 292 293 293 294 293 293 292 292 291 291 290 290 289 287 286 283 280 275 272 272 273 273 273 274 274
280 278 276 276 278 282 287 288 288 288 290 292 293 293 293 293 292 291 291 291 291 293 295 294 294 294 293 293 292 291 291 289 288 287 285 281 278 276 274 276 275 275 276 275
280 280 276 275 279 283 287 288 289 289 289 291 293 294 293 293 293 292 291 291 291 291 293 294 295 296 294 293 293 293 292 289 286 285 285 283 280 280 279 279 278 276 275 274
281 282 280 278 279 281 285 288 290 290 289 290 291 292 293 293 293 293 292 291 291 290 291 293 295 295 295 294 293 292 291 289 286 284 283 283 284 282 280 279 276 275 275 274
282 282 280 278 278 282 284 287 289 289 289 290 291 293 294 294 294 294 293 292 292 291 292 293 293 295 294 294 294 293 290 288 285 285 283 285 287 286 283 279 275 274 274 273
281 280 279 280 282 284 285 287 289 290 291 291 293 294 295 296 296 295 293 292 292 292 293 292 292 293 294 295 293 291 290 288 284 284 284 285 285 283 280 278 275 274 274 274
279 280 280 282 284 285 287 288 289 290 292 292 293 295 296 297 297 295 293 292 292 292 293 293 293 293 293 293 293 292 290 288 287 286 285 284 283 281 279 277 275 274 274 275
282 283 283 283 284 286 288 289 289 290 291 292 293 293 294 296 295 294 293 292 293 293 293 293 293 293 293 292 292 291 290 290 289 288 286 285 283 282 278 276 275 275 276 274
284 285 284 285 286 287 288 289 290 291 291 292 292 292 293 294 294 293 292 292 292 292 292 292 293 293 293 292 292 292 292 291 290 288 286 283 281 279 279 277 276 275 275 274
284 286 286 286 287 287 288 289 291 292 293 293 293 294 294 294 294 293 292 291 291 292 291 291 292 292 293 292 292 291 292 291 289 286 284 281 279 279 278 277 274 273 273 276
283 285 286 287 288 288 289 289 290 292 295 295 295 295 295 295 294 294 293 291 290 291 292 293 293 292 293 292 290 289 289 288 285 282 281 280 278 278 278 277 276 276 276 278
280 282 285 287 288 289 289 289 291 294 297 298 297 296 295 295 294 294 293 291 290 291 293 294 295 294 294 293 291 290 289 286 283 282 282 281 280 276 277 277 278 278 277 278
279 281 284 286 288 288 289 289 291 295 298 299 298 297 295 294 293 292 292 292 292 294 295 295 294 294 293 293 292 290 288 286 284 282 281 281 280 278 278 278 279 279 279 280
278 280 282 285 287 290 291 291 292 295 297 299 299 298 296 294 293 292 292 291 292 294 295 294 292 293 294 294 293 291 289 287 284 281 279 278 278 279 280 281 281 280 280 280
278 280 283 286 288 291 292 293 294 295 297 298 298 299 298 297 297 296 294 292 291 293 294 294 292 291 292 292 292 292 290 288 285 281 280 279 279 281 281 283 282 281 281 281
278 280 282 285 288 291 292 293 294 295 296 296 297 298 298 297 296 295 294 293 292 292 293 292 292 294 293 292 291 292 292 290 288 285 283 282 284 284 284 284 284 283 282 282
277 279 282 286 288 290 293 295 294 294 295 295 295 296 296 295 292 291 291 292 291 291 292 291 292 294 294 291 289 289 288 287 288 288 288 287 287 286 285 285 284 283 282 282
279 279 281 285 288 291 294 296 295 294 293 293 294 295 296 294 292 290 290 290 289 288 289 289 290 292 291 288 285 284 282 282 286 289 291 294 294 294 292 291 288 286 285 285
279 279 282 286 289 291 292 294 294 293 291 291 291 293 296 294 292 291 291 290 289 287 287 287 288 289 288 286 283 280 279 281 284 287 291 294 297 299 298 297 296 294 292 291
279 279 282 285 287 289 291 292 292 291 291 290 290 291 293 293 292 291 291 290 289 288 287 287 287 287 285 282 280 277 277 279 281 284 290 294 296 297 299 300 299 297 295 294
Height
5600 5600 5600 5601 5602 5601 5601 5600 5600 5600 5599 5598 5596 5594 5593 5591 5589 5587 5585 5583 5581 5579 5577 5576 5574 5572 5571 5570 5569 5569 5569 5568 5568 5567 5567 5567 5567 5567 5567 5567 5568 5568 5568 5569
5595 5595 5594 5595 5596 5595 5595 5594 5593 5593 5592 5591 5589 5587 5586 5584 5583 5581 5578 5576 5574 5572 5570 5567 5565 5564 5562 5561 5559 5559 5558 5557 5557 5556 5556 5555 5555 5555 5555 5555 5556 5556 5556 5556
5589 5588 5588 5590 5591 5589 5589 5588 5588 5586 5587 5584 5582 5580 5579 5577 5576 5574 5572 5569 5567 5564 5562 5560 5558 5556 5554 5552 5550 5549 5548 5547 5546 5546 5545 5545 5544 5544 5543 5543 5544 5544 5544 5544
5582 5583 5582 5586 5584 5583 5583 5582 5581 5580 5579 5577 5575 5574 5572 5570 5569 5567 5565 5563 5560 5558 5555 5553 5550 5548 5546 5544 5542 5540 5539 5537 5536 5536 5535 5535 5534 5533 5532 5532 5532 5533 5533 5533
5576 5575 5576 5579 5578 5577 5577 5577 5575 5574 5572 5570 5568 5567 5566 5564 5562 5560 5558 5556 5554 5551 5548 5546 5543 5540 5538 5536 5534 5532 5530 5528 5527 5526 5525 5524 5523 5523 5522 5522 5522 5522 5522 5523
5570 5569 5570 5573 5572 5570 5571 5570 5569 5567 5565 5564 5562 5561 5560 5557 5555 5553 5551 5549 5547 5544 5541 5538 5536 5533 5531 5528 5526 5523 5521 5520 5519 5517 5516 5515 5514 5514 5513 5513 5513 5513 5513 5514
5565 5563 5564 5566 5565 5565 5565 5565 5563 5561 5559 5557 5555 5554 5553 5550 5548 5546 5544 5542 5539 5537 5534 5531 5528 5526 5523 5521 5518 5516 5514 5512 5510 5509 5508 5507 5506 5505 5505 5505 5504 5504 5505 5505
5559 5559 5561 5560 5559 5559 5559 5557 5555 5554 5552 5551 5549 5547 5545 5543 5541 5539 5537 5534 5532 5529 5527 5524 5520 5518 5516 5514 5511 5509 5507 5505 5503 5502 5500 5499 5498 5498 5497 5497 5497 5496 5497 5497
5555 5556 5555 5553 5553 5552 5551 5550 5549 5547 5546 5544 5542 5540 5538 5536 5534 5531 5529 5527 5525 5522 5520 5517 5514 5511 5509 5507 5504 5502 5500 5498 5497 5495 5494 5492 5492 5491 5491 5490 5489 5489 5490 5490
5549 5549 5548 5547 5547 5546 5545 5543 5542 5540 5539 5537 5535 5533 5531 5529 5527 5524 5522 5520 5518 5516 5514 5511 5508 5505 5502 5500 5498 5496 5494 5492 5491 5489 5488 5487 5486 5485 5484 5483 5483 5483 5483 5483
5543 5543 5542 5541 5540 5539 5538 5537 5535 5534 5532 5530 5528 5526 5524 5522 5520 5517 5515 5513 5511 5509 5507 5505 5502 5499 5496 5494 5492 5490 5488 5486 5485 5484 5483 5482 5480 5479 5478 5477 5476 5477 5477 5477
5537 5537 5536 5535 5534 5533 5532 5531 5529 5527 5525 5523 5522 5520 5517 5515 5513 5510 5508 5506 5504 5502 5500 5498 5495 5493 5490 5488 5486 5484 5482 5481 5479 5478 5477 5476 5475 5474 5472 5472 5471 5471 5471 5471
5531 5530 5529 5529 5528 5527 5525 5524 5522 5520 5519 5517 5515 5513 5510 5508 5506 5503 5501 5499 5497 5495 5493 5491 5489 5487 5485 5482 5480 5478 5476 5475 5474 5473 5472 5471 5469 5468 5467 5467 5466 5466 5465 5466
5525 5524 5523 5522 5521 5520 5518 5517 5515 5514 5512 5510 5508 5506 5504 5501 5499 5497 5495 5493 5491 5489 5487 5485 5483 5481 5479 5477 5475 5473 5471 5469 5468 5467 5466 5465 5464 5463 5462 5462 5462 5461 5461 5461
5518 5517 5516 5515 5514 5513 5512 5510 5508 5507 5505 5503 5501 5499 5497 5495 5492 5490 5488 5486 5484 5482 5481 5479 5477 5475 5473 5471 5469 5467 5465 5464 5463 5461 5460 5459 5458 5458 5458 5457 5457 5457 5457 5457
5512 5511 5510 5509 5507 5506 5504 5503 5502 5500 5498 5496 5494 5492 5490 5488 5486 5484 5482 5480 5478 5477 5475 5473 5471 5470 5468 5466 5464 5462 5461 5459 5458 5457 5456 5455 5454 5454 5454 5453 5453 5453 5454 5454
5505 5504 5503 5502 5500 5499 5497 5496 5495 5493 5491 5489 5487 5485 5483 5481 5479 5477 5476 5474 5472 5471 5469 5468 5466 5464 5462 5461 5459 5457 5456 5454 5453 5452 5451 5451 5450 5450 5450 5450 5450 5450 5450 5450
5498 5497 5496 5494 5493 5492 5491 5489 5488 5486 5484 5482 5480 5479 5477 5475 5473 5471 5470 5468 5467 5465 5464 5462 5461 5459 5457 5455 5454 5452 5451 5450 5449 5448 5448 5447 5447 5447 5446 5446 5446 5446 5446 5446
5490 5489 5489 5488 5487 5486 5484 5483 5482 5480 5478 5476 5474 5472 5471 5469 5467 5466 5464 5463 5461 5460 5459 5457 5455 5453 5452 5450 5449 5448 5447 5446 5445 5445 5444 5444 5443 5443 5443 5443 5443 5443 5443 5443
5484 5483 5482 5482 5481 5480 5478 5477 5476 5474 5472 5470 5468 5467 5465 5464 5462 5461 5459 5458 5456 5455 5453 5452 5450 5449 5447 5446 5445 5444 5443 5442 5442 5441 5441 5440 5440 5440 5440 5439 5439 5439 5439 5439
5478 5477 5477 5476 5475 5474 5473 5471 5470 5469 5467 5465 5463 5461 5460 5458 5457 5455 5454 5453 5451 5450 5449 5447 5446 5445 5444 5443 5441 5440 5440 5439 5438 5438 5437 5437 5437 5436 5436 5436 5435 5435 5435 5434
5472 5472 5471 5470 5469 5468 5467 5466 5464 5463 5461 5460 5458 5456 5455 5453 5452 5450 5449 5448 5447 5446 5444 5443 5442 5441 5440 5439 5438 5437 5436 5436 5435 5434 5434 5433 5433 5432 5432 5432 5431 5431 5430 5430
5466 5466 5465 5465 5464 5463 5462 5460 5459 5458 5456 5454 5453 5451 5450 5448 5447 5446 5445 5444 5443 5441 5440 5439 5438 5437 5436 5435 5435 5434 5433 5432 5431 5431 5430 5430 5429 5429 5428 5428 5427 5427 5426 5426
5460 5460 5460 5459 5458 5458 5456 5455 5454 5452 5451 5449 5448 5447 5445 5444 5443 5442 5441 5440 5439 5438 5437 5436 5435 5434 5433 5432 5431 5430 5430 5429 5428 5428 5427 5426 5426 5425 5424 5424 5423 5423 5422 5422
5455 5455 5454 5454 5453 5452 5451 5450 5448 5447 5446 5445 5443 5442 5441 5439 5438 5438 5437 5436 5435 5434 5433 5432 5431 5430 5429 5428 5427 5427 5426 5426 5425 5425 5424 5423 5422 5422 5421 5420 5419 5419 5418 5418
5449 5449 5449 5448 5448 5447 5446 5444 5443 5442 5441 5440 5439 5438 5436 5435 5434 5433 5432 5431 5430 5429 5428 5428 5427 5426 5425 5424 5424 5423 5423 5423 5422 5422 5421 5420 5419 5418 5417 5416 5416 5415 5414 5413
5444 5444 5443 5443 5442 5441 5440 5439 5438 5437 5436 5435 5434 5433 5432 5431 5429 5428 5428 5427 5426 5425 5424 5423 5423 5422 5421 5420 5420 5420 5419 5419 5419 5418 5417 5417 5416 5415 5414 5413 5412 5411 5410 5410